Home   Weather   Freetown   Past weeks

Flag for Sierra Leone Past Weather in Freetown, Sierra Leone — Yesterday and Last 2 Weeks

Now
75 °F

Light rain. Passing clouds.


Feels Like: 73 °F
Forecast: 76 / 82 °F
Wind: 2 mph from North

Location: Conakry / Gbessia

Current Time: Sep 30, 2016 at 5:01:55 AM

Latest Report: Sep 30, 2016 at 2:00 AM


Visibility: 5 mi

Pressure: 29.92 "Hg

Humidity: 100%

Dew Point: 75 °F

Location of FreetownLocation

Past Weather in Freetown — Graph

°F

Freetown Temperature Yesterday

Maximum temperature yesterday: 82 °F (at 4:00 PM)
Minimum temperature yesterday: 73 °F (at 11:00 PM)
Average temperature yesterday: 78 °F

High & Low Weather Summary for the Past Weeks

 TemperatureHumidityPressure
High88 °F (Sep 15, 1:00 PM)100% (Sep 15, 2:00 AM)30.09 "Hg (Sep 15, 2:00 AM)
Low72 °F (Sep 19, 5:00 AM)62% (Sep 15, 11:00 AM)29.77 "Hg (Sep 26, 4:00 PM)
Average80 °F89%29.90 "Hg
* Reported Sep 15 2:00 AM — Sep 30 2:00 AM, Freetown, Weather by CustomWeather, © 2016

Note: Actual official high and low records may vary slightly from our data, if they occured in-between our weather recording intervals... More about our weather records

Advertising

Freetown Weather History for the Previous 24 Hours

Scroll right to see more
 ConditionsComfort  
Time TempWeatherWind HumidityBarometerVisibility
2:00 AM
Fri, Sep 30
75 °FLight rain. Passing clouds.2 mph100%29.92 "Hg5 mi
12:00 AM75 °FLight rain. Passing clouds.No wind100%29.92 "Hg5 mi
11:00 PM
Thu, Sep 29
73 °FThunderstorms. Passing clouds.5 mph100%29.95 "Hg5 mi
10:00 PM75 °FThunderstorms. Passing clouds.9 mph94%29.95 "Hg5 mi
9:00 PM75 °FThunderstorms. Passing clouds.7 mph94%29.92 "Hg5 mi
8:00 PM77 °FThunderstorms. Passing clouds.7 mph94%29.89 "Hg5 mi
7:00 PM81 °FPassing clouds.5 mph84%29.89 "HgN/A
6:00 PM82 °FPartly sunny.7 mph84%29.83 "HgN/A
5:00 PM82 °FPartly sunny.7 mph84%29.80 "HgN/A
4:00 PM82 °FPartly sunny.9 mph84%29.80 "HgN/A
3:00 PM81 °FPartly sunny.9 mph89%29.83 "HgN/A
2:00 PM81 °FPartly sunny.9 mph89%29.86 "HgN/A
1:00 PM81 °FPartly sunny.7 mph89%29.89 "HgN/A
12:00 PM79 °FPartly sunny.7 mph100%29.92 "HgN/A
11:00 AM81 °FPartly sunny.5 mph89%29.92 "HgN/A
9:00 AM79 °FPartly sunny.5 mph94%29.92 "HgN/A
8:00 AM77 °FBroken clouds.5 mph100%29.92 "HgN/A
7:00 AM77 °FLight rain. Broken clouds.5 mph94%29.89 "Hg5 mi
6:00 AM77 °FLight rain. Partly cloudy.9 mph100%29.86 "Hg3 mi
5:00 AM77 °FLight rain. Partly cloudy.5 mph100%29.89 "Hg3 mi
Weather by CustomWeather, © 2016

See weather overviewHow to use our weather pages